Flag for United Kingdom Weather past 2 weeks in Stoke-on-Trent, England, United Kingdom

Now
54 °F

Mostly cloudy.


Feels Like: 52 °F
Forecast: 48 / 65 °F
Wind: 6 mph from West

Location: Manchester Airport

Current Time: Aug 31, 2014 at 6:15:43 AM

Latest Report: Aug 31, 2014 at 5:50 AM


Visibility: 4 mi

Pressure: 30.01 "Hg

Humidity: 100%

Dew point: 54 °F

Location of Stoke-on-TrentLocation

Historic Weather in Stoke-on-Trent — Graph

°F

Stoke-on-Trent temperature yesterday

Maximum temperature yesterday: 64 °F (at 2:20 PM)
Minimum temperature yesterday: 54 °F (at 5:20 AM)
Average temperature yesterday: 58 °F

Past Weeks' High & Low Weather Summary

 TemperatureHumidityPressure
High68 °F (Aug 28, 2:50 PM)100% (Aug 18, 3:20 AM)30.09 "Hg (Aug 18, 3:20 AM)
Low43 °F (Aug 24, 5:20 AM)48% (Aug 19, 4:50 PM)29.59 "Hg (Aug 25, 6:20 PM)
Average56 °F80%29.87 "Hg
* Reported Aug 16 5:20 AM — Aug 31 5:20 AM, Stoke-on-Trent, Weather by CustomWeather, © 2014

Note: Actual official high and low records may vary slightly from our data, if they occured in-between our weather recording intervals... More about our weather records

Advertising

Stoke-on-Trent weather history for previous 24 hours

 ConditionsComfort  
Time TempWeatherWind HumidityBarometerVisibility
5:20 AM
Aug 31
54 °FPassing clouds.3 mph100%30.01 "HgN/A
4:50 AM54 °FOvercast.5 mph100%30.01 "HgN/A
4:20 AM54 °FOvercast.5 mph100%30.01 "HgN/A
3:50 AM54 °FPassing clouds.5 mph100%30.01 "HgN/A
3:20 AM54 °FCool.5 mph94%30.01 "HgN/A
2:50 AM54 °FCool.6 mph100%30.01 "HgN/A
2:20 AM55 °FPassing clouds.8 mph94%30.01 "HgN/A
1:50 AM55 °FPartly cloudy.8 mph100%30.01 "HgN/A
1:20 AM55 °FHeavy rain. Passing clouds.8 mph100%30.01 "Hg2 mi
12:50 AM55 °FPassing clouds.6 mph100%30.01 "Hg6 mi
12:20 AM55 °FPartly cloudy.7 mph100%30.01 "HgN/A
11:50 PM
Aug 30
57 °FMostly cloudy.6 mph100%30.01 "HgN/A
11:20 PM57 °FOvercast.7 mph100%30.01 "Hg5 mi
10:50 PM57 °FMostly cloudy.5 mph100%30.01 "HgN/A
10:20 PM57 °FPassing clouds.5 mph94%30.01 "HgN/A
9:50 PM57 °FPartly cloudy.8 mph94%30.01 "HgN/A
9:20 PM57 °FScattered showers. Passing clouds.9 mph100%29.98 "HgN/A
8:50 PM57 °FScattered showers. Partly sunny.9 mph100%29.98 "HgN/A
8:20 PM57 °FDrizzle. Partly sunny.7 mph100%29.98 "HgN/A
7:50 PM59 °FMixture of precip. Partly sunny.10 mph94%29.98 "HgN/A
6:50 PM59 °FScattered showers. Broken clouds.10 mph94%29.98 "HgN/A
6:20 PM59 °FScattered showers. Broken clouds.9 mph94%29.95 "HgN/A
5:50 PM61 °FDrizzle. Partly sunny.14 mph83%29.95 "Hg2 mi
5:20 PM61 °FScattered showers. Partly sunny.14 mph88%29.95 "HgN/A
4:50 PM61 °FSprinkles. Partly sunny.12 mph83%29.95 "HgN/A
4:20 PM63 °FScattered showers. Partly sunny.13 mph68%29.95 "HgN/A
3:50 PM63 °FPassing clouds.15 mph68%29.95 "HgN/A
3:20 PM63 °FScattered clouds.14 mph68%29.95 "HgN/A
2:50 PM64 °FScattered clouds.15 mph68%29.95 "HgN/A
2:20 PM64 °FScattered clouds.16 mph68%29.95 "HgN/A
1:20 PM61 °FScattered clouds.14 mph83%29.95 "HgN/A
12:50 PM61 °FScattered clouds.15 mph83%29.95 "HgN/A
12:20 PM61 °FScattered clouds.14 mph83%29.95 "HgN/A
11:50 AM59 °FBroken clouds.14 mph94%29.95 "HgN/A
11:20 AM59 °FBroken clouds.13 mph94%29.92 "Hg5 mi
10:50 AM57 °FScattered showers. Scattered clouds.12 mph100%29.92 "HgN/A
10:20 AM57 °FSprinkles. Broken clouds.12 mph94%29.92 "Hg4 mi
9:50 AM57 °FSprinkles. Broken clouds.15 mph94%29.92 "Hg4 mi
9:20 AM57 °FScattered showers. Broken clouds.13 mph94%29.89 "HgN/A
8:50 AM57 °FRain showers. Broken clouds.9 mph94%29.89 "Hg5 mi
8:20 AM55 °FScattered showers. Broken clouds.10 mph100%29.89 "Hg6 mi
7:50 AM55 °FScattered clouds.12 mph94%29.89 "HgN/A
7:20 AM55 °FScattered clouds.10 mph94%29.86 "HgN/A
6:50 AM55 °FPassing clouds.10 mph94%29.86 "HgN/A
6:20 AM55 °FPartly cloudy.10 mph94%29.86 "HgN/A
Weather by CustomWeather, © 2014

See weather overviewHow to use our weather pages